Location: Heisede
(52.2582°N, 9.8523°E)
Time: 23:51:08
(UTC+00:00)

Cosmos 1408 Rocket - Pass Details

Date: 13 January 2026
Orbit: 594 x 623 km, 82.6° (Epoch: 9 February)

Event Time Altitude Azimuth Distance (km) Brightness Sun altitude
Rises 05:50:37 0° 208° (SSW) 2,865 6.9 -13.7°
Reaches altitude 10° 05:52:56 10° 215° (SW) 1,960 6.0 -13.3°
Maximum altitude 05:57:03 42° 287° (WNW) 870 3.8 -12.7°
Drops below altitude 10° 06:01:11 10° 359° (N) 1,958 5.9 -12.1°
Sets 06:03:30 0° 7° (N) 2,862 6.8 -11.8°
